WGS F9 (USA 275) (42075 NORAD) Tracking and Keplerian Element Data

This shows tracking and keplerian element data for the satellite.

Feedback or suggestion? Click here.




ElementValue
Catalog42075
NameWGS F9 (USA 275)
Epoch Orbit2893
Epoch Day34.82410106
Epoch Year2025
RAAN121.0785
Inclination0.01
Eccentricity4.93E-05
Argument of Perigee204.0763
Mean Anonmoly93.7068
Mean Motion1.00269442
Decay Rate-9.3E-07
L11 42075U 17016A 25034.82410106 -.00000093 00000+0 00000+0 0 9990
L22 42075 0.0100 121.0785 0000493 204.0763 93.7068 1.00269442 28936



Live tracking and technical data element details for WGS F9 (USA 275) (NORAD 42075). WGS F9 (USA 275) can be tracked NOW for your location showing map with azimuth and elevation plus other details from your city location.







IsCatalogInMostPopularTable: catalog: 42075, numindb: 323
Update: records affected: 1



GetName: 42075 WGS F9 (USA 275)

Hit Count: updated at: Thu, 15 May 2025 19:58:18 GMT